Terminal Aerodrome Forecast
Issued by NWS Upton, NY

Home | Current Version | Previous Version | Text Only | Print | Product List | Glossary On
Versions: 1 2 3 4 5 6 7 8 9 10 11 12 13 14 15 16 17 18 19 20 21 22 23 24 25 26 27 28 29 30 31 32 33 34 35 36 37 38 39 40 41 42 43 44 45 46 47 48 49 50
000
FTUS41 KOKX 191541 AAB
TAFLGA
TAF AMD
KLGA 191541Z 1916/2018 29007KT P6SM FEW060
     FM192100 24009KT P6SM SCT060
     FM200000 21006KT P6SM FEW070
     FM200700 24004KT P6SM FEW100
     FM201400 22008KT P6SM SCT250=

USA.gov is the U.S. government's official web portal to all federal, state and local government web resources and services.